Tucumcari, NM

12:26 PM MDT on April 23, 2018 (GMT -0600)
Tucumcari Municipal

Weather History for KTCC - July, 2013

Change the Weather History Date:

Tuesday, July 16, 2013

  Actual Average Record
Temperature  
Mean Temperature 72 °F -  
Max Temperature 79 °F 93 °F 104 °F (2016)
Min Temperature 64 °F 64 °F 58 °F (1992)
Cooling Degree Days 6    
Growing Degree Days 22 (Base 50)    
Moisture  
Dew Point 57 °F    
Average Humidity 64    
Maximum Humidity 84    
Minimum Humidity 40    
Precipitation  
Precipitation 0.00 in - - ()
Sea Level Pressure  
Sea Level Pressure 30.06 in    
Wind  
Wind Speed 5 mph (East)    
Max Wind Speed 14 mph    
Max Gust Speed 18 mph    
Visibility 9 miles    
Events      
Averages and records for this station are not official NWS values.
T = Trace of Precipitation, MM = Missing Value Source: NWS Daily Summary

Daily Weather History Graph

Daily Weather History Graph

Search for Another Location

Airport or City:

Astronomy

Jul. 16, 2013 Rise Set
Actual Time 5:52 AM MDT 8:08 PM MDT
Civil Twilight 5:23 AM MDT 8:37 PM MDT
Nautical Twilight 4:47 AM MDT 9:12 PM MDT
Astronomical Twilight 4:08 AM MDT 9:51 PM MDT
Moon 1:57 PM MDT (7/16) 12:16 AM MDT (7/16)
Length of Visible Light 15h 14m
Length of Day
14h 16m
First Quarter, 57% of the Moon is Illuminated
Jul 16
First Quarter
Jul 22
Full
Jul 29
Last Quarter
Aug 6
New
Aug 14
First Quarter

Hourly Weather History & Observations

Time (MDT) Temp. Dew Point Humidity Pressure Visibility Wind Dir Wind Speed Gust Speed Precip Events Conditions
12:53 AM 66.9 °F 60.1 °F 79% 30.04 in 10.0 mi Calm Calm - 0.00 in   Overcast
1:53 AM 66.9 °F 57.9 °F 73% 30.03 in 10.0 mi Calm Calm - N/A   Overcast
2:53 AM 64.0 °F 59.0 °F 84% 30.02 in 9.0 mi Calm Calm - N/A   Scattered Clouds
3:53 AM 66.0 °F 59.0 °F 78% 30.01 in 9.0 mi North 3.5 mph - N/A   Overcast
4:53 AM 66.0 °F 60.1 °F 81% 30.01 in 7.0 mi NE 3.5 mph - N/A   Overcast
5:53 AM 64.9 °F 60.1 °F 84% 30.03 in 7.0 mi Calm Calm - N/A   Overcast
6:53 AM 64.9 °F 60.1 °F 84% 30.05 in 4.0 mi East 5.8 mph - N/A   Haze
7:53 AM 64.9 °F 59.0 °F 81% 30.07 in 6.0 mi East 5.8 mph - N/A   Haze
8:48 AM 66.2 °F 57.2 °F 73% 30.22 in 8.0 mi ENE 6.9 mph - N/A   Mostly Cloudy
8:53 AM 66.0 °F 57.9 °F 75% 30.08 in 9.0 mi East 4.6 mph - N/A   Mostly Cloudy
9:53 AM 69.1 °F 57.9 °F 68% 30.07 in 10.0 mi NE 3.5 mph - N/A   Overcast
10:53 AM 73.9 °F 57.0 °F 55% 30.06 in 10.0 mi NNE 9.2 mph - N/A   Mostly Cloudy
11:53 AM 73.0 °F 54.0 °F 51% 30.07 in 10.0 mi East 10.4 mph - N/A   Overcast
12:53 PM 73.9 °F 54.0 °F 50% 30.06 in 10.0 mi ENE 10.4 mph - N/A   Overcast
1:53 PM 78.1 °F 54.0 °F 43% 30.03 in 10.0 mi ENE 12.7 mph 17.3 mph N/A   Mostly Cloudy
2:53 PM 79.0 °F 53.1 °F 40% 30.02 in 10.0 mi Variable 5.8 mph - N/A   Mostly Cloudy
3:53 PM 77.0 °F 52.0 °F 42% 30.03 in 10.0 mi East 8.1 mph - N/A   Mostly Cloudy
4:53 PM 78.1 °F 53.1 °F 42% 30.02 in 10.0 mi SE 13.8 mph 18.4 mph N/A   Mostly Cloudy
5:53 PM 75.9 °F 55.0 °F 48% 30.03 in 10.0 mi SSE 12.7 mph - N/A   Scattered Clouds
6:53 PM 73.9 °F 55.0 °F 52% 30.04 in 10.0 mi South 11.5 mph - N/A   Scattered Clouds
7:53 PM 73.0 °F 55.9 °F 55% 30.06 in 10.0 mi South 6.9 mph - N/A   Scattered Clouds
8:53 PM 70.0 °F 55.0 °F 59% 30.10 in 10.0 mi SE 10.4 mph - N/A   Clear
9:53 PM 70.0 °F 57.0 °F 63% 30.13 in 10.0 mi ESE 4.6 mph - N/A   Overcast
10:53 PM 68.0 °F 57.9 °F 70% 30.14 in 10.0 mi SSE 8.1 mph - N/A   Mostly Cloudy
11:53 PM 66.0 °F 59.0 °F 78% 30.15 in 10.0 mi South 4.6 mph - N/A   Clear